Location: *
(43.2048°N, 0.1612°E)
Time: 17:39:16
(UTC+00:00)

Cosmos 1151 Rocket - Pass Details

Date: 30 September 2023
Orbit: 589 x 613 km, 82.5° (Epoch: 05 December)

Event Time Altitude Azimuth Distance (km) Brightness Sun altitude
Rises 05:19:09 0° 214° (SSW) 2,855 6.1 -7.4°
Reaches altitude 10° 05:21:36 10° 225° (SW) 1,960 5.2 -6.9°
Maximum altitude 05:25:22 28° 286° (WNW) 1,144 3.9 -6.3°
Drops below altitude 10° 05:29:11 10° 346° (NNW) 1,980 5.5 -5.6°
Sets 05:31:41 0° 358° (N) 2,891 6.5 -5.1°
